contact:dominique.lefevre@mio.osupytheas.fr, maurice.libes@osupytheas.fr, didier.mallarino@osupytheas.fr
Project:EMSO http://www.emso-fr.org/EMSO-France
Depth: 2436.0 m
Title:EMSO Ligure Ouest : Data MII capteur CSTAR
DateTime,Latitude,Longitude,Instrument_Serial,Reference_Counts,Signal_Counts,Corrected_Signal_raw_counts,Calculated_Beam_c_inverse_meters,Internal_thermistor_counts
DateTime,Latitude,Longitude,Instrument_Serial,Reference_Counts,Signal_Counts,Corrected_Signal_raw_counts,Calculated_Beam_c_inverse_meters,Internal_thermistor_counts
2019-08-09T00:02:03,42.805,6.029,CST-1368DR,8372,11712,15431,0.048,551
2019-08-09T00:05:05,42.805,6.029,CST-1368DR,8372,11713,15433,0.047,550
2019-08-09T00:08:06,42.805,6.029,CST-1368DR,8372,11713,15432,0.047,551
2019-08-09T00:11:08,42.805,6.029,CST-1368DR,8372,11711,15430,0.048,551
2019-08-09T00:14:10,42.805,6.029,CST-1368DR,8372,11713,15432,0.047,551
2019-08-09T00:17:11,42.805,6.029,CST-1368DR,8371,11712,15432,0.047,551
2019-08-09T00:20:13,42.805,6.029,CST-1368DR,8372,11713,15432,0.047,551
2019-08-09T00:23:14,42.805,6.029,CST-1368DR,8372,11713,15433,0.047,550
2019-08-09T00:26:16,42.805,6.029,CST-1368DR,8372,11713,15433,0.047,551
2019-08-09T00:29:18,42.805,6.029,CST-1368DR,8372,11712,15431,0.048,551
2019-08-09T00:32:19,42.805,6.029,CST-1368DR,8371,11713,15433,0.047,551
2019-08-09T00:35:21,42.805,6.029,CST-1368DR,8371,11712,15432,0.047,551
2019-08-09T00:38:23,42.805,6.029,CST-1368DR,8371,11712,15433,0.047,551
2019-08-09T00:41:24,42.805,6.029,CST-1368DR,8371,11713,15433,0.047,551
2019-08-09T00:44:26,42.805,6.029,CST-1368DR,8371,11712,15433,0.047,551
2019-08-09T00:47:28,42.805,6.029,CST-1368DR,8371,11713,15434,0.047,551
2019-08-09T00:50:29,42.805,6.029,CST-1368DR,8371,11712,15432,0.047,551
2019-08-09T00:53:31,42.805,6.029,CST-1368DR,8371,11711,15432,0.047,551
2019-08-09T00:56:32,42.805,6.029,CST-1368DR,8371,11711,15431,0.048,551
2019-08-09T00:59:34,42.805,6.029,CST-1368DR,8371,11710,15430,0.048,551
2019-08-09T01:02:36,42.805,6.029,CST-1368DR,8371,11712,15433,0.047,551
2019-08-09T01:05:37,42.805,6.029,CST-1368DR,8371,11712,15432,0.047,551
2019-08-09T01:08:39,42.805,6.029,CST-1368DR,8371,11711,15431,0.048,551
2019-08-09T01:11:41,42.805,6.029,CST-1368DR,8371,11710,15430,0.048,551
2019-08-09T01:14:42,42.805,6.029,CST-1368DR,8371,11712,15433,0.047,551
2019-08-09T01:17:44,42.805,6.029,CST-1368DR,8371,11708,15428,0.048,551
2019-08-09T01:20:46,42.805,6.029,CST-1368DR,8371,11713,15433,0.047,551
2019-08-09T01:23:47,42.805,6.029,CST-1368DR,8371,11712,15433,0.047,551
2019-08-09T01:26:49,42.805,6.029,CST-1368DR,8371,11712,15432,0.047,551
2019-08-09T01:29:51,42.805,6.029,CST-1368DR,8371,11712,15432,0.047,551
2019-08-09T01:32:52,42.805,6.029,CST-1368DR,8371,11710,15430,0.048,551
2019-08-09T01:35:54,42.805,6.029,CST-1368DR,8371,11711,15432,0.047,550
2019-08-09T01:38:56,42.805,6.029,CST-1368DR,8371,11712,15432,0.047,551
2019-08-09T01:41:57,42.805,6.029,CST-1368DR,8371,11712,15432,0.047,551
2019-08-09T01:44:59,42.805,6.029,CST-1368DR,8371,11712,15432,0.047,551
2019-08-09T01:48:01,42.805,6.029,CST-1368DR,8371,11709,15429,0.048,550
2019-08-09T01:51:02,42.805,6.029,CST-1368DR,8370,11710,15432,0.047,551
2019-08-09T01:54:04,42.805,6.029,CST-1368DR,8371,11710,15430,0.048,551
2019-08-09T01:57:06,42.805,6.029,CST-1368DR,8371,11711,15431,0.048,551
2019-08-09T02:00:07,42.805,6.029,CST-1368DR,8371,11712,15432,0.047,551
2019-08-09T02:03:09,42.805,6.029,CST-1368DR,8371,11712,15433,0.047,551
2019-08-09T02:06:10,42.805,6.029,CST-1368DR,8371,11712,15432,0.047,551
2019-08-09T02:09:12,42.805,6.029,CST-1368DR,8370,11712,15434,0.047,551
2019-08-09T02:12:14,42.805,6.029,CST-1368DR,8370,11709,15431,0.048,551
2019-08-09T02:15:15,42.805,6.029,CST-1368DR,8371,11712,15432,0.047,551
2019-08-09T02:18:17,42.805,6.029,CST-1368DR,8370,11711,15433,0.047,551
2019-08-09T02:21:19,42.805,6.029,CST-1368DR,8370,11711,15433,0.047,551
2019-08-09T02:24:20,42.805,6.029,CST-1368DR,8370,11711,15433,0.047,551
2019-08-09T02:27:22,42.805,6.029,CST-1368DR,8370,11709,15430,0.048,551
2019-08-09T02:30:24,42.805,6.029,CST-1368DR,8370,11712,15435,0.047,551
2019-08-09T02:33:25,42.805,6.029,CST-1368DR,8370,11712,15435,0.047,551
2019-08-09T02:36:27,42.805,6.029,CST-1368DR,8370,11712,15435,0.047,551
2019-08-09T02:39:29,42.805,6.029,CST-1368DR,8370,11706,15427,0.049,551
2019-08-09T02:42:30,42.805,6.029,CST-1368DR,8370,11712,15434,0.047,551
2019-08-09T02:45:32,42.805,6.029,CST-1368DR,8370,11712,15434,0.047,551
2019-08-09T02:48:34,42.805,6.029,CST-1368DR,8370,11710,15432,0.047,551
2019-08-09T02:51:35,42.805,6.029,CST-1368DR,8370,11712,15434,0.047,551
2019-08-09T02:54:37,42.805,6.029,CST-1368DR,8370,11712,15435,0.047,551
2019-08-09T02:57:39,42.805,6.029,CST-1368DR,8370,11711,15433,0.047,551
2019-08-09T03:00:41,42.805,6.029,CST-1368DR,8370,11713,15435,0.047,551
2019-08-09T03:03:42,42.805,6.029,CST-1368DR,8370,11711,15433,0.047,551
2019-08-09T03:06:44,42.805,6.029,CST-1368DR,8370,11711,15433,0.047,551
2019-08-09T03:09:46,42.805,6.029,CST-1368DR,8370,11706,15426,0.049,550
2019-08-09T03:12:47,42.805,6.029,CST-1368DR,8370,11710,15431,0.048,551
2019-08-09T03:15:49,42.805,6.029,CST-1368DR,8370,11711,15433,0.047,551
2019-08-09T03:18:51,42.805,6.029,CST-1368DR,8370,11711,15433,0.047,551
2019-08-09T03:21:52,42.805,6.029,CST-1368DR,8370,11710,15432,0.047,551
2019-08-09T03:24:54,42.805,6.029,CST-1368DR,8370,11710,15432,0.047,551
2019-08-09T03:27:56,42.805,6.029,CST-1368DR,8370,11711,15433,0.047,551
2019-08-09T03:30:57,42.805,6.029,CST-1368DR,8370,11711,15433,0.047,551
2019-08-09T03:33:59,42.805,6.029,CST-1368DR,8370,11710,15432,0.047,551
2019-08-09T03:37:00,42.805,6.029,CST-1368DR,8370,11711,15433,0.047,551
2019-08-09T03:40:02,42.805,6.029,CST-1368DR,8370,11711,15433,0.047,551
2019-08-09T03:43:04,42.805,6.029,CST-1368DR,8370,11710,15432,0.047,550
2019-08-09T03:46:05,42.805,6.029,CST-1368DR,8370,11711,15433,0.047,551
2019-08-09T03:49:07,42.805,6.029,CST-1368DR,8370,11710,15431,0.048,551
2019-08-09T03:52:09,42.805,6.029,CST-1368DR,8370,11712,15434,0.047,551
2019-08-09T03:55:10,42.805,6.029,CST-1368DR,8370,11710,15432,0.047,551
2019-08-09T03:58:12,42.805,6.029,CST-1368DR,8370,11712,15434,0.047,551
2019-08-09T04:01:14,42.805,6.029,CST-1368DR,8370,11710,15431,0.048,551
2019-08-09T04:04:15,42.805,6.029,CST-1368DR,8370,11708,15429,0.048,551
2019-08-09T04:07:17,42.805,6.029,CST-1368DR,8369,11710,15433,0.047,551
2019-08-09T04:10:18,42.805,6.029,CST-1368DR,8369,11709,15432,0.047,551
2019-08-09T04:13:20,42.805,6.029,CST-1368DR,8369,11709,15432,0.047,551
2019-08-09T04:16:22,42.805,6.029,CST-1368DR,8369,11708,15430,0.048,551
2019-08-09T04:19:23,42.805,6.029,CST-1368DR,8369,11709,15432,0.047,551
2019-08-09T04:22:25,42.805,6.029,CST-1368DR,8369,11710,15433,0.047,551
2019-08-09T04:25:27,42.805,6.029,CST-1368DR,8369,11708,15430,0.048,551
2019-08-09T04:28:29,42.805,6.029,CST-1368DR,8369,11710,15433,0.047,551
2019-08-09T04:31:30,42.805,6.029,CST-1368DR,8369,11708,15431,0.048,551
2019-08-09T04:34:32,42.805,6.029,CST-1368DR,8369,11708,15431,0.048,551
2019-08-09T04:37:34,42.805,6.029,CST-1368DR,8369,11711,15435,0.047,551
2019-08-09T04:40:35,42.805,6.029,CST-1368DR,8369,11710,15433,0.047,551
2019-08-09T04:43:37,42.805,6.029,CST-1368DR,8369,11711,15434,0.047,551
2019-08-09T04:46:39,42.805,6.029,CST-1368DR,8369,11711,15434,0.047,551
2019-08-09T04:49:41,42.805,6.029,CST-1368DR,8369,11709,15432,0.047,551
2019-08-09T04:52:42,42.805,6.029,CST-1368DR,8369,11710,15433,0.047,551
2019-08-09T04:55:44,42.805,6.029,CST-1368DR,8369,11711,15434,0.047,551
2019-08-09T04:58:46,42.805,6.029,CST-1368DR,8369,11710,15433,0.047,551
2019-08-09T05:01:48,42.805,6.029,CST-1368DR,8369,11709,15431,0.048,551
2019-08-09T05:04:50,42.805,6.029,CST-1368DR,8369,11707,15429,0.048,551
2019-08-09T05:07:51,42.805,6.029,CST-1368DR,8369,11709,15432,0.047,551
2019-08-09T05:10:53,42.805,6.029,CST-1368DR,8369,11710,15433,0.047,551
2019-08-09T05:13:55,42.805,6.029,CST-1368DR,8369,11709,15432,0.047,551
2019-08-09T05:16:57,42.805,6.029,CST-1368DR,8369,11710,15434,0.047,551
2019-08-09T05:19:59,42.805,6.029,CST-1368DR,8369,11710,15433,0.047,551
2019-08-09T05:23:00,42.805,6.029,CST-1368DR,8369,11708,15430,0.048,551
2019-08-09T05:26:02,42.805,6.029,CST-1368DR,8369,11710,15433,0.047,551
2019-08-09T05:29:04,42.805,6.029,CST-1368DR,8369,11707,15429,0.048,551
2019-08-09T05:32:06,42.805,6.029,CST-1368DR,8369,11708,15430,0.048,551
2019-08-09T05:35:08,42.805,6.029,CST-1368DR,8369,11709,15432,0.047,551
2019-08-09T05:38:10,42.805,6.029,CST-1368DR,8369,11709,15432,0.047,551
2019-08-09T05:41:12,42.805,6.029,CST-1368DR,8369,11707,15429,0.048,551
2019-08-09T05:44:13,42.805,6.029,CST-1368DR,8369,11709,15432,0.047,551
2019-08-09T05:47:15,42.805,6.029,CST-1368DR,8369,11708,15430,0.048,551
2019-08-09T05:50:17,42.805,6.029,CST-1368DR,8369,11709,15432,0.047,551
2019-08-09T05:53:19,42.805,6.029,CST-1368DR,8369,11707,15429,0.048,551
2019-08-09T05:56:20,42.805,6.029,CST-1368DR,8369,11710,15433,0.047,551
2019-08-09T05:59:22,42.805,6.029,CST-1368DR,8369,11710,15433,0.047,551
2019-08-09T06:02:24,42.805,6.029,CST-1368DR,8369,11707,15429,0.048,551
2019-08-09T06:05:26,42.805,6.029,CST-1368DR,8369,11709,15432,0.047,551
2019-08-09T06:08:28,42.805,6.029,CST-1368DR,8369,11710,15433,0.047,550
2019-08-09T06:11:29,42.805,6.029,CST-1368DR,8369,11709,15432,0.047,551
2019-08-09T06:14:31,42.805,6.029,CST-1368DR,8369,11708,15430,0.048,551
2019-08-09T06:17:33,42.805,6.029,CST-1368DR,8369,11708,15430,0.048,551
2019-08-09T06:20:35,42.805,6.029,CST-1368DR,8369,11710,15433,0.047,551
2019-08-09T06:23:37,42.805,6.029,CST-1368DR,8369,11710,15433,0.047,551
2019-08-09T06:26:38,42.805,6.029,CST-1368DR,8369,11710,15433,0.047,551
2019-08-09T06:29:40,42.805,6.029,CST-1368DR,8369,11709,15432,0.047,551
2019-08-09T06:32:42,42.805,6.029,CST-1368DR,8369,11709,15431,0.048,551
2019-08-09T06:35:44,42.805,6.029,CST-1368DR,8368,11708,15432,0.047,551
2019-08-09T06:38:46,42.805,6.029,CST-1368DR,8369,11708,15430,0.048,551
2019-08-09T06:41:47,42.805,6.029,CST-1368DR,8369,11708,15430,0.048,550
2019-08-09T06:44:49,42.805,6.029,CST-1368DR,8368,11709,15434,0.047,551
2019-08-09T06:47:51,42.805,6.029,CST-1368DR,8369,11710,15433,0.047,551
2019-08-09T06:50:53,42.805,6.029,CST-1368DR,8369,11707,15429,0.048,551
2019-08-09T06:53:54,42.805,6.029,CST-1368DR,8368,11709,15433,0.047,551
2019-08-09T06:56:56,42.805,6.029,CST-1368DR,8368,11710,15435,0.047,551
2019-08-09T06:59:58,42.805,6.029,CST-1368DR,8368,11708,15433,0.047,551
2019-08-09T07:03:00,42.805,6.029,CST-1368DR,8368,11709,15434,0.047,551
2019-08-09T07:06:01,42.805,6.029,CST-1368DR,8368,11706,15430,0.048,550
2019-08-09T07:09:03,42.805,6.029,CST-1368DR,8368,11709,15433,0.047,550
2019-08-09T07:12:05,42.805,6.029,CST-1368DR,8368,11710,15434,0.047,551
2019-08-09T07:15:07,42.805,6.029,CST-1368DR,8368,11708,15432,0.047,551
2019-08-09T07:18:09,42.805,6.029,CST-1368DR,8368,11709,15434,0.047,551
2019-08-09T07:21:10,42.805,6.029,CST-1368DR,8368,11709,15434,0.047,551
2019-08-09T07:24:12,42.805,6.029,CST-1368DR,8368,11710,15435,0.047,550
2019-08-09T07:27:14,42.805,6.029,CST-1368DR,8368,11710,15434,0.047,551
2019-08-09T07:30:16,42.805,6.029,CST-1368DR,8368,11708,15433,0.047,551
2019-08-09T07:33:18,42.805,6.029,CST-1368DR,8368,11709,15434,0.047,551
2019-08-09T07:36:19,42.805,6.029,CST-1368DR,8368,11709,15434,0.047,551
2019-08-09T07:39:21,42.805,6.029,CST-1368DR,8368,11708,15433,0.047,551
2019-08-09T07:42:23,42.805,6.029,CST-1368DR,8368,11709,15433,0.047,551
2019-08-09T07:45:25,42.805,6.029,CST-1368DR,8368,11707,15431,0.048,551
2019-08-09T07:48:26,42.805,6.029,CST-1368DR,8368,11709,15434,0.047,551
2019-08-09T07:51:28,42.805,6.029,CST-1368DR,8368,11708,15432,0.047,551
2019-08-09T07:54:30,42.805,6.029,CST-1368DR,8368,11710,15435,0.047,551
2019-08-09T07:57:32,42.805,6.029,CST-1368DR,8368,11709,15433,0.047,551
2019-08-09T08:00:33,42.805,6.029,CST-1368DR,8368,11709,15433,0.047,551
2019-08-09T08:03:35,42.805,6.029,CST-1368DR,8368,11709,15434,0.047,551
2019-08-09T08:06:37,42.805,6.029,CST-1368DR,8368,11709,15433,0.047,551
2019-08-09T08:09:39,42.805,6.029,CST-1368DR,8368,11708,15433,0.047,551
2019-08-09T08:12:41,42.805,6.029,CST-1368DR,8368,11708,15432,0.047,551
2019-08-09T08:15:43,42.805,6.029,CST-1368DR,8368,11709,15434,0.047,551
2019-08-09T08:18:44,42.805,6.029,CST-1368DR,8368,11708,15432,0.047,551
2019-08-09T08:21:46,42.805,6.029,CST-1368DR,8368,11708,15432,0.047,551
2019-08-09T08:24:48,42.805,6.029,CST-1368DR,8368,11709,15433,0.047,551
2019-08-09T08:27:50,42.805,6.029,CST-1368DR,8368,11710,15434,0.047,550
2019-08-09T08:30:52,42.805,6.029,CST-1368DR,8368,11708,15433,0.047,550
2019-08-09T08:33:54,42.805,6.029,CST-1368DR,8368,11709,15433,0.047,551
2019-08-09T08:36:56,42.805,6.029,CST-1368DR,8367,11709,15435,0.047,551
2019-08-09T08:39:57,42.805,6.029,CST-1368DR,8368,11708,15432,0.047,551
2019-08-09T08:42:59,42.805,6.029,CST-1368DR,8367,11708,15434,0.047,551
2019-08-09T08:46:01,42.805,6.029,CST-1368DR,8367,11708,15434,0.047,551
2019-08-09T08:49:03,42.805,6.029,CST-1368DR,8367,11708,15434,0.047,551
2019-08-09T08:52:05,42.805,6.029,CST-1368DR,8367,11708,15434,0.047,551
2019-08-09T08:55:06,42.805,6.029,CST-1368DR,8368,11709,15434,0.047,551
2019-08-09T08:58:08,42.805,6.029,CST-1368DR,8367,11708,15434,0.047,551
2019-08-09T09:01:10,42.805,6.029,CST-1368DR,8367,11708,15434,0.047,551
2019-08-09T09:04:12,42.805,6.029,CST-1368DR,8367,11709,15435,0.047,551
2019-08-09T09:07:14,42.805,6.029,CST-1368DR,8367,11708,15433,0.047,551
2019-08-09T09:10:15,42.805,6.029,CST-1368DR,8367,11707,15432,0.047,551
2019-08-09T09:13:17,42.805,6.029,CST-1368DR,8367,11705,15430,0.048,551
2019-08-09T09:16:19,42.805,6.029,CST-1368DR,8367,11707,15432,0.047,551
2019-08-09T09:19:21,42.805,6.029,CST-1368DR,8367,11709,15435,0.047,551
2019-08-09T09:22:23,42.805,6.029,CST-1368DR,8367,11709,15435,0.047,551
2019-08-09T09:25:24,42.805,6.029,CST-1368DR,8367,11706,15432,0.047,551
2019-08-09T09:28:26,42.805,6.029,CST-1368DR,8367,11708,15433,0.047,551
2019-08-09T09:31:28,42.805,6.029,CST-1368DR,8367,11702,15426,0.049,551
2019-08-09T09:34:30,42.805,6.029,CST-1368DR,8367,11706,15431,0.048,550
2019-08-09T09:37:32,42.805,6.029,CST-1368DR,8367,11707,15432,0.047,551
2019-08-09T09:40:34,42.805,6.029,CST-1368DR,8367,11707,15432,0.047,551
2019-08-09T09:43:35,42.805,6.029,CST-1368DR,8367,11707,15432,0.047,551
2019-08-09T09:46:37,42.805,6.029,CST-1368DR,8367,11708,15434,0.047,551
2019-08-09T09:49:39,42.805,6.029,CST-1368DR,8367,11703,15427,0.049,551
2019-08-09T09:52:41,42.805,6.029,CST-1368DR,8367,11707,15432,0.047,551
2019-08-09T09:55:43,42.805,6.029,CST-1368DR,8367,11708,15434,0.047,551
2019-08-09T09:58:44,42.805,6.029,CST-1368DR,8367,11707,15433,0.047,551
2019-08-09T10:01:46,42.805,6.029,CST-1368DR,8367,11708,15434,0.047,551
2019-08-09T10:04:48,42.805,6.029,CST-1368DR,8367,11707,15432,0.047,551
2019-08-09T10:07:50,42.805,6.029,CST-1368DR,8367,11705,15429,0.048,551
2019-08-09T10:10:52,42.805,6.029,CST-1368DR,8367,11707,15433,0.047,551
2019-08-09T10:13:53,42.805,6.029,CST-1368DR,8367,11706,15432,0.047,551
2019-08-09T10:16:55,42.805,6.029,CST-1368DR,8367,11708,15433,0.047,551
2019-08-09T10:19:57,42.805,6.029,CST-1368DR,8367,11707,15432,0.047,551
2019-08-09T10:22:59,42.805,6.029,CST-1368DR,8367,11706,15432,0.047,551
2019-08-09T10:26:00,42.805,6.029,CST-1368DR,8367,11705,15430,0.048,551
2019-08-09T10:29:02,42.805,6.029,CST-1368DR,8367,11708,15433,0.047,551
2019-08-09T10:32:04,42.805,6.029,CST-1368DR,8367,11705,15430,0.048,551
2019-08-09T10:35:05,42.805,6.029,CST-1368DR,8367,11706,15431,0.048,550
2019-08-09T10:38:07,42.805,6.029,CST-1368DR,8367,11707,15432,0.047,551
2019-08-09T10:41:08,42.805,6.029,CST-1368DR,8367,11706,15431,0.048,550
2019-08-09T10:44:10,42.805,6.029,CST-1368DR,8367,11707,15433,0.047,551
2019-08-09T10:47:12,42.805,6.029,CST-1368DR,8367,11706,15431,0.048,551
2019-08-09T10:50:13,42.805,6.029,CST-1368DR,8367,11707,15432,0.047,551
2019-08-09T10:53:15,42.805,6.029,CST-1368DR,8367,11706,15431,0.048,551
2019-08-09T10:56:17,42.805,6.029,CST-1368DR,8366,11707,15434,0.047,550
2019-08-09T10:59:18,42.805,6.029,CST-1368DR,8367,11706,15432,0.047,551
2019-08-09T11:02:20,42.805,6.029,CST-1368DR,8367,11704,15429,0.048,550
2019-08-09T11:05:22,42.805,6.029,CST-1368DR,8366,11705,15432,0.047,551
2019-08-09T11:08:23,42.805,6.029,CST-1368DR,8366,11705,15432,0.047,550
2019-08-09T11:11:25,42.805,6.029,CST-1368DR,8366,11706,15433,0.047,551
2019-08-09T11:14:27,42.805,6.029,CST-1368DR,8366,11705,15432,0.047,550
2019-08-09T11:17:28,42.805,6.029,CST-1368DR,8366,11705,15431,0.048,551
2019-08-09T11:20:30,42.805,6.029,CST-1368DR,8366,11706,15433,0.047,551
2019-08-09T11:23:31,42.805,6.029,CST-1368DR,8366,11706,15433,0.047,551
2019-08-09T11:26:33,42.805,6.029,CST-1368DR,8366,11702,15428,0.048,551
2019-08-09T11:29:35,42.805,6.029,CST-1368DR,8366,11699,15424,0.049,551
2019-08-09T11:32:37,42.805,6.029,CST-1368DR,8366,11700,15425,0.049,551
2019-08-09T11:35:38,42.805,6.029,CST-1368DR,8366,11703,15429,0.048,551
2019-08-09T11:38:40,42.805,6.029,CST-1368DR,8366,11704,15431,0.048,551
2019-08-09T11:41:42,42.805,6.029,CST-1368DR,8366,11703,15430,0.048,551
2019-08-09T11:44:43,42.805,6.029,CST-1368DR,8366,11704,15431,0.048,551
2019-08-09T11:47:45,42.805,6.029,CST-1368DR,8366,11704,15431,0.048,551
2019-08-09T11:50:47,42.805,6.029,CST-1368DR,8366,11703,15430,0.048,551
2019-08-09T11:53:48,42.805,6.029,CST-1368DR,8366,11703,15429,0.048,551
2019-08-09T11:56:50,42.805,6.029,CST-1368DR,8366,11705,15431,0.048,551
2019-08-09T11:59:52,42.805,6.029,CST-1368DR,8366,11705,15432,0.047,551
2019-08-09T12:02:53,42.805,6.029,CST-1368DR,8366,11706,15433,0.047,550
2019-08-09T12:05:55,42.805,6.029,CST-1368DR,8366,11702,15428,0.048,550
2019-08-09T12:08:57,42.805,6.029,CST-1368DR,8366,11705,15432,0.047,551
2019-08-09T12:11:58,42.805,6.029,CST-1368DR,8366,11706,15433,0.047,551
2019-08-09T12:15:00,42.805,6.029,CST-1368DR,8366,11703,15430,0.048,551
2019-08-09T12:18:01,42.805,6.029,CST-1368DR,8366,11703,15430,0.048,551
2019-08-09T12:21:03,42.805,6.029,CST-1368DR,8366,11705,15432,0.047,551
2019-08-09T12:24:05,42.805,6.029,CST-1368DR,8366,11705,15432,0.047,551
2019-08-09T12:27:06,42.805,6.029,CST-1368DR,8366,11705,15432,0.047,551
2019-08-09T12:30:08,42.805,6.029,CST-1368DR,8366,11702,15428,0.048,551
2019-08-09T12:33:10,42.805,6.029,CST-1368DR,8366,11705,15432,0.047,551
2019-08-09T12:36:11,42.805,6.029,CST-1368DR,8366,11705,15432,0.047,551
2019-08-09T12:39:13,42.805,6.029,CST-1368DR,8365,11704,15433,0.047,551
2019-08-09T12:42:15,42.805,6.029,CST-1368DR,8366,11703,15430,0.048,550
2019-08-09T12:45:16,42.805,6.029,CST-1368DR,8366,11703,15430,0.048,551
2019-08-09T12:48:18,42.805,6.029,CST-1368DR,8366,11705,15432,0.047,551
2019-08-09T12:51:20,42.805,6.029,CST-1368DR,8366,11705,15432,0.047,551
2019-08-09T12:54:21,42.805,6.029,CST-1368DR,8366,11704,15431,0.048,551
2019-08-09T12:57:23,42.805,6.029,CST-1368DR,8366,11704,15431,0.048,551
2019-08-09T13:00:24,42.805,6.029,CST-1368DR,8365,11703,15430,0.048,551
2019-08-09T13:03:26,42.805,6.029,CST-1368DR,8365,11704,15433,0.047,550
2019-08-09T13:06:28,42.805,6.029,CST-1368DR,8365,11702,15429,0.048,551
2019-08-09T13:09:29,42.805,6.029,CST-1368DR,8365,11703,15430,0.048,551
2019-08-09T13:12:31,42.805,6.029,CST-1368DR,8365,11703,15431,0.048,551
2019-08-09T13:15:33,42.805,6.029,CST-1368DR,8365,11703,15431,0.048,551
2019-08-09T13:18:34,42.805,6.029,CST-1368DR,8365,11702,15430,0.048,551
2019-08-09T13:21:36,42.805,6.029,CST-1368DR,8365,11703,15430,0.048,551
2019-08-09T13:24:38,42.805,6.029,CST-1368DR,8365,11704,15432,0.047,551
2019-08-09T13:27:40,42.805,6.029,CST-1368DR,8365,11703,15431,0.048,551
2019-08-09T13:30:42,42.805,6.029,CST-1368DR,8365,11702,15430,0.048,551
2019-08-09T13:33:43,42.805,6.029,CST-1368DR,8365,11703,15431,0.048,551
2019-08-09T13:36:45,42.805,6.029,CST-1368DR,8365,11701,15428,0.048,550
2019-08-09T13:39:47,42.805,6.029,CST-1368DR,8365,11703,15431,0.048,551
2019-08-09T13:42:48,42.805,6.029,CST-1368DR,8365,11703,15431,0.048,551
2019-08-09T13:45:50,42.805,6.029,CST-1368DR,8365,11705,15433,0.047,551
2019-08-09T13:48:51,42.805,6.029,CST-1368DR,8365,11704,15433,0.047,551
2019-08-09T13:51:53,42.805,6.029,CST-1368DR,8365,11705,15433,0.047,551
2019-08-09T13:54:55,42.805,6.029,CST-1368DR,8365,11703,15431,0.048,551
2019-08-09T13:57:56,42.805,6.029,CST-1368DR,8365,11704,15433,0.047,551
2019-08-09T14:00:58,42.805,6.029,CST-1368DR,8365,11702,15430,0.048,551
2019-08-09T14:04:00,42.805,6.029,CST-1368DR,8365,11703,15431,0.048,551
2019-08-09T14:07:01,42.805,6.029,CST-1368DR,8365,11702,15430,0.048,551
2019-08-09T14:10:03,42.805,6.029,CST-1368DR,8365,11702,15430,0.048,551
2019-08-09T14:13:05,42.805,6.029,CST-1368DR,8365,11702,15430,0.048,551
2019-08-09T14:16:06,42.805,6.029,CST-1368DR,8365,11703,15431,0.048,551
2019-08-09T14:19:08,42.805,6.029,CST-1368DR,8365,11703,15431,0.048,551
2019-08-09T14:22:10,42.805,6.029,CST-1368DR,8365,11703,15431,0.048,551
2019-08-09T14:25:11,42.805,6.029,CST-1368DR,8365,11702,15429,0.048,551
2019-08-09T14:28:13,42.805,6.029,CST-1368DR,8365,11703,15431,0.048,551
2019-08-09T14:31:14,42.805,6.029,CST-1368DR,8364,11703,15432,0.047,551
2019-08-09T14:34:16,42.805,6.029,CST-1368DR,8364,11702,15432,0.047,551
2019-08-09T14:37:18,42.805,6.029,CST-1368DR,8364,11702,15431,0.048,551
2019-08-09T14:40:19,42.805,6.029,CST-1368DR,8364,11703,15432,0.047,551
2019-08-09T14:43:21,42.805,6.029,CST-1368DR,8364,11703,15432,0.047,551
2019-08-09T14:46:23,42.805,6.029,CST-1368DR,8364,11703,15433,0.047,551
2019-08-09T14:49:24,42.805,6.029,CST-1368DR,8364,11704,15433,0.047,551
2019-08-09T14:52:26,42.805,6.029,CST-1368DR,8364,11702,15431,0.048,550
2019-08-09T14:55:28,42.805,6.029,CST-1368DR,8364,11703,15433,0.047,551
2019-08-09T14:58:29,42.805,6.029,CST-1368DR,8364,11702,15432,0.047,551
2019-08-09T15:01:31,42.805,6.029,CST-1368DR,8364,11702,15432,0.047,551
2019-08-09T15:04:32,42.805,6.029,CST-1368DR,8364,11702,15431,0.048,550
2019-08-09T15:07:34,42.805,6.029,CST-1368DR,8364,11701,15430,0.048,551
2019-08-09T15:10:36,42.805,6.029,CST-1368DR,8364,11702,15431,0.048,551
2019-08-09T15:13:37,42.805,6.029,CST-1368DR,8364,11702,15431,0.048,551
2019-08-09T15:16:39,42.805,6.029,CST-1368DR,8364,11702,15431,0.048,551
2019-08-09T15:19:41,42.805,6.029,CST-1368DR,8364,11703,15432,0.047,551
2019-08-09T15:22:42,42.805,6.029,CST-1368DR,8364,11701,15430,0.048,551
2019-08-09T15:25:44,42.805,6.029,CST-1368DR,8364,11702,15432,0.047,551
2019-08-09T15:28:46,42.805,6.029,CST-1368DR,8364,11700,15429,0.048,551
2019-08-09T15:31:47,42.805,6.029,CST-1368DR,8364,11700,15428,0.048,551
2019-08-09T15:34:49,42.805,6.029,CST-1368DR,8364,11699,15427,0.049,551
2019-08-09T15:37:51,42.805,6.029,CST-1368DR,8364,11700,15429,0.048,551
2019-08-09T15:40:52,42.805,6.029,CST-1368DR,8364,11699,15427,0.049,551
2019-08-09T15:43:54,42.805,6.029,CST-1368DR,8364,11701,15430,0.048,551
2019-08-09T15:46:55,42.805,6.029,CST-1368DR,8364,11701,15430,0.048,551
2019-08-09T15:49:57,42.805,6.029,CST-1368DR,8364,11700,15429,0.048,551
2019-08-09T15:52:59,42.805,6.029,CST-1368DR,8364,11702,15431,0.048,551
2019-08-09T15:56:00,42.805,6.029,CST-1368DR,8364,11701,15430,0.048,551
2019-08-09T15:59:02,42.805,6.029,CST-1368DR,8364,11700,15429,0.048,551
2019-08-09T16:02:04,42.805,6.029,CST-1368DR,8364,11700,15429,0.048,551
2019-08-09T16:05:05,42.805,6.029,CST-1368DR,8364,11700,15429,0.048,550
2019-08-09T16:08:07,42.805,6.029,CST-1368DR,8364,11700,15428,0.048,551
2019-08-09T16:11:09,42.805,6.029,CST-1368DR,8364,11700,15429,0.048,551
2019-08-09T16:14:10,42.805,6.029,CST-1368DR,8364,11699,15427,0.049,551
2019-08-09T16:17:12,42.805,6.029,CST-1368DR,8364,11699,15427,0.049,551
2019-08-09T16:20:13,42.805,6.029,CST-1368DR,8364,11698,15426,0.049,551
2019-08-09T16:23:15,42.805,6.029,CST-1368DR,8364,11700,15428,0.048,551
2019-08-09T16:26:17,42.805,6.029,CST-1368DR,8364,11700,15428,0.048,551
2019-08-09T16:29:18,42.805,6.029,CST-1368DR,8364,11699,15427,0.049,551
2019-08-09T16:32:20,42.805,6.029,CST-1368DR,8364,11702,15431,0.048,551
2019-08-09T16:35:22,42.805,6.029,CST-1368DR,8364,11701,15430,0.048,551
2019-08-09T16:38:23,42.805,6.029,CST-1368DR,8364,11700,15429,0.048,551